ONEWEB-0589

operational
NORAD ID: 54655 Int'l Des: 2022-166 Owner: ONEWEBN Country: UK Constellation: oneweb
LEOCIRCULARPOLARONEWEB_TYPE

About ONEWEB-0589

Description loading...

Live Position

Loading 3D Globe...

Upcoming Passes

Altitude History

Altitude vs Time

uPlot chart will show altitude changes over time

Two-Line Element Set

1 54655U 22166P 25251.90876902 .00000123 00000-0 26647-3 0 9992
2 54655 87.9217 300.1235 0002751 87.8004 272.3445 13.21823933134388
Epoch: Sep 8, 2025 • Age: 12 hours

Current Status

Altitude 1196.7 km
Velocity 7.25 km/s
Sub-Earth Point -45.36°S, 154.72°E
Launch Date Dec 8, 2022
Age 2.7 years
Type internet

Technical Details

Classification Payload
Mass 148.00 kg
Dry Mass 140.00 kg
Total Mass 148.00 kg
Length 1.30 m
Diameter 1.00 m
Span 5.00 m
Shape Trapezoid+2 pan
Manufacturer ONEWUS
Bus Type ARROW
Phase Status In Orbit
Owner/State ONEWEBN/UK

Large Constellations

Loading constellations...